Location: New Mesquite
(33.1168°N, 96.4336°W)
Time: 09:04:34
(UTC+00:00)

OPS-SAT - Pass Details

Date: 11 October 2022
Orbit: 486 x 504 km, 97.5° (Epoch: 01 December)

Event Time Altitude Azimuth Distance (km) Brightness Sun altitude
Rises 00:24:22 0° 13° (NNE) 2,624 ? -6.2°
Reaches altitude 10° 00:26:28 10° 15° (NNE) 1,733 ? -6.7°
Maximum altitude 00:30:12 75° 101° (ESE) 529 ? -7.5°
Drops below altitude 10° 00:33:54 10° 187° (S) 1,713 ? -8.2°
Sets 00:35:58 0° 189° (S) 2,591 ? -8.7°
